Simultaneous Nadir Overpasses (SNOs) Predictions

Prediction of SNOs between TERRA and METOP-C Satellite Orbit:

Table of predicted SNOs for the next 14.0 days since TLE Epoch: 12/17/2022
Index Date (TERRA) Time (TERRA) Lat,Lon (TERRA) SZA (TERRA ) Date (METOP-C) Time (METOP-C) Lat,Lon (METOP-C) SZA (METOP-C ) Distance(km) Time Diff (sec)
1 12/17/2022 16:18:53 80.96, -28.57 106.02 12/17/2022 16:18:01 80.96, -28.54 106.01 0.73 52
2 12/17/2022 17:08:15 -80.99, 139.49 73.92 12/17/2022 17:08:39 -80.99, 139.55 73.90 1.29 24
3 12/20/2022 08:30:31 80.96, 88.56 106.06 12/20/2022 08:29:39 80.97, 88.66 106.05 1.76 52
4 12/20/2022 09:19:53 -80.99,-103.39 73.89 12/20/2022 09:20:17 -81.00,-103.27 73.86 2.13 24
5 12/23/2022 00:42:10 80.95,-154.46 106.01 12/23/2022 00:41:19 80.95,-154.57 105.98 1.94 51
6 12/23/2022 01:31:32 -80.98, 13.59 73.93 12/23/2022 01:31:57 -80.98, 13.49 73.93 1.73 25
7 12/25/2022 16:53:48 80.96, -37.27 105.95 12/25/2022 16:52:57 80.97, -37.11 105.95 2.74 51
8 12/25/2022 17:43:10 -80.99, 130.77 74.00 12/25/2022 17:43:35 -81.00, 130.93 73.97 2.98 25
9 12/28/2022 09:05:26 80.96, 79.78 105.81 12/28/2022 09:04:36 80.97, 79.92 105.81 2.55 50
10 12/28/2022 09:54:48 -80.99,-112.19 74.14 12/28/2022 09:55:14 -81.00,-112.03 74.11 2.92 26
11 12/31/2022 01:17:03 80.95,-163.32 105.59 12/31/2022 01:16:15 80.94,-163.46 105.56 2.52 48



Historial Predications of SNOs between TERRA and METOP-C
